Flag for United Kingdom Weather past 2 weeks in Saint Helier, Jersey, United Kingdom

Now
61 °F

Scattered showers. Passing clouds.


Feels Like: 61 °F
Forecast: 62 / 71 °F
Wind: 8 mph from West

Location: Jersey Airport

Current Time: Jul 28, 2014 at 6:37:58 AM

Latest Report: Jul 28, 2014 at 6:20 AM


Visibility: N/A

Pressure: 30.01 "Hg

Humidity: 88%

Dew point: 57 °F

Location of Saint HelierLocation

Historic Weather in Saint Helier — Graph

°F

Saint Helier temperature yesterday

Maximum temperature yesterday: 70 °F (at 10:50 AM)
Minimum temperature yesterday: 63 °F (at 3:50 AM)
Average temperature yesterday: 66 °F

Past Weeks' High & Low Weather Summary

 TemperatureHumidityPressure
High81 °F (Jul 24, 12:20 PM)100% (Jul 13, 5:20 AM)30.21 "Hg (Jul 13, 5:20 AM)
Low55 °F (Jul 16, 4:50 AM)57% (Jul 22, 5:20 PM)29.71 "Hg (Jul 19, 5:20 AM)
Average67 °F80%30.02 "Hg
* Reported Jul 13 5:20 AM — Jul 28 5:20 AM, Saint Helier, Weather by CustomWeather, © 2014

Note: Actual official high and low records may vary slightly from our data, if they occured in-between our weather recording intervals... More about our weather records

Advertising

Saint Helier weather history for previous 24 hours

 ConditionsComfort  
Time TempWeatherWind HumidityBarometerVisibility
5:20 AM
Jul 28
61 °FPassing clouds.8 mph88%30.01 "HgN/A
4:50 AM61 °FPassing clouds.8 mph88%30.01 "HgN/A
4:20 AM59 °FPassing clouds.10 mph88%30.01 "HgN/A
9:50 PM
Jul 27
63 °FPassing clouds.9 mph88%30.07 "HgN/A
9:20 PM63 °FPassing clouds.9 mph88%30.07 "HgN/A
8:50 PM63 °FPassing clouds.9 mph94%30.07 "HgN/A
8:20 PM64 °FSunny.12 mph88%30.07 "Hg10 mi
7:50 PM64 °FPassing clouds.14 mph88%30.07 "HgN/A
7:20 PM64 °FPassing clouds.13 mph88%30.07 "HgN/A
6:50 PM66 °FPassing clouds.14 mph83%30.07 "HgN/A
6:20 PM66 °FPassing clouds.12 mph78%30.07 "HgN/A
5:50 PM66 °FPassing clouds.9 mph83%30.07 "HgN/A
5:20 PM68 °FPassing clouds.10 mph78%30.07 "HgN/A
4:50 PM68 °FPassing clouds.9 mph78%30.07 "HgN/A
4:20 PM70 °FPassing clouds.13 mph73%30.09 "HgN/A
3:20 PM68 °FPassing clouds.10 mph78%30.09 "HgN/A
2:50 PM70 °FPassing clouds.15 mph73%30.09 "HgN/A
2:20 PM70 °FPassing clouds.10 mph73%30.09 "HgN/A
1:50 PM70 °FPassing clouds.13 mph78%30.09 "HgN/A
1:20 PM70 °FPassing clouds.8 mph78%30.09 "HgN/A
12:50 PM70 °FPassing clouds.9 mph73%30.09 "HgN/A
12:20 PM70 °FPassing clouds.9 mph78%30.09 "HgN/A
11:50 AM68 °FScattered clouds.9 mph83%30.09 "HgN/A
11:20 AM70 °FScattered clouds.8 mph83%30.09 "Hg5 mi
10:50 AM70 °FScattered clouds.12 mph83%30.09 "Hg4 mi
10:20 AM68 °FScattered clouds.9 mph94%30.09 "Hg4 mi
9:50 AM66 °FFog.10 mph100%30.09 "Hg2 mi
9:20 AM66 °FFog.10 mph100%30.09 "Hg2 mi
8:50 AM66 °FFog.13 mph94%30.09 "Hg1 mi
8:20 AM64 °FFog.10 mph100%30.09 "Hg1 mi
7:50 AM64 °FFog.10 mph100%30.09 "Hg1 mi
7:20 AM64 °FFog.13 mph100%30.09 "Hg1 mi
6:50 AM64 °FFog.10 mph100%30.09 "Hg0 mi
6:20 AM64 °FFog.9 mph100%30.09 "Hg1 mi
Weather by CustomWeather, © 2014

See weather overviewHow to use our weather pages